| time (UTC) | temp F | wind direction | speed MPH | gust MPH | rain 1hr in | rain 24hr in | rain mn in | humidity % | barometer mb |
| 20260505001532 | 79 | 160 | 3.0 | 10.0 | 0.00 | 0.00 | 0.00 | 61 | 1006.7 |
| 20260505001015 | 79 | 223 | 2.0 | 9.0 | 0.00 | 0.00 | 0.00 | 61 | 1006.6 |
| 20260505000515 | 79 | 196 | 3.0 | 8.0 | 0.00 | 0.00 | 0.00 | 62 | 1006.8 |
| 20260505000036 | 78 | 169 | 2.0 | 7.0 | 0.00 | 0.00 | 0.00 | 63 | 1006.8 |
| 20260504235515 | 78 | 163 | 3.0 | 7.0 | 0.00 | 0.00 | 0.00 | 63 | 1006.7 |
| 20260504235015 | 78 | 223 | 2.0 | 7.0 | 0.00 | 0.00 | 0.00 | 63 | 1006.8 |
| 20260504234535 | 79 | 150 | 2.0 | 7.0 | 0.00 | 0.00 | 0.00 | 62 | 1007.1 |
| 20260504234015 | 79 | 173 | 3.0 | 7.0 | 0.00 | 0.00 | 0.00 | 62 | 1007.1 |
| 20260504233514 | 79 | 156 | 3.0 | 8.0 | 0.00 | 0.00 | 0.00 | 62 | 1007.1 |
| 20260504233033 | 79 | 154 | 3.0 | 8.0 | 0.00 | 0.00 | 0.00 | 61 | 1007.2 |
| 20260504232516 | 79 | 136 | 2.0 | 9.0 | 0.00 | 0.00 | 0.00 | 61 | 1007.1 |
| 20260504232015 | 80 | 148 | 4.0 | 11.0 | 0.00 | 0.00 | 0.00 | 60 | 1007.1 |
| 20260504231529 | 80 | 180 | 5.0 | 11.0 | 0.00 | 0.00 | 0.00 | 59 | 1007.3 |
| 20260504231015 | 80 | 186 | 5.0 | 12.0 | 0.00 | 0.00 | 0.00 | 59 | 1007.3 |
| 20260504230515 | 81 | 142 | 5.0 | 19.0 | 0.00 | 0.00 | 0.00 | 58 | 1007.5 |
| 20260504230030 | 82 | 167 | 5.0 | 19.0 | 0.00 | 0.00 | 0.00 | 58 | 1007.5 |
| 20260504225516 | 81 | 162 | 5.0 | 13.0 | 0.00 | 0.00 | 0.00 | 58 | 1007.7 |
| 20260504225017 | 81 | 167 | 3.0 | 12.0 | 0.00 | 0.00 | 0.00 | 59 | 1007.8 |
| 20260504224531 | 80 | 208 | 4.0 | 9.0 | 0.00 | 0.00 | 0.00 | 60 | 1007.8 |
| 20260504224015 | 80 | 158 | 4.0 | 9.0 | 0.00 | 0.00 | 0.00 | 59 | 1007.8 |
| 20260504223515 | 81 | 145 | 3.0 | 13.0 | 0.00 | 0.00 | 0.00 | 58 | 1007.7 |
| 20260504223038 | 81 | 165 | 5.0 | 13.0 | 0.00 | 0.00 | 0.00 | 58 | 1007.7 |
| 20260504222515 | 81 | 192 | 3.0 | 11.0 | 0.00 | 0.00 | 0.00 | 58 | 1007.8 |
| 20260504222019 | 81 | 137 | 4.0 | 11.0 | 0.00 | 0.00 | 0.00 | 58 | 1007.8 |
| 20260504221532 | 81 | 182 | 4.0 | 11.0 | 0.00 | 0.00 | 0.00 | 57 | 1007.8 |
| 20260504221015 | 82 | 178 | 4.0 | 12.0 | 0.00 | 0.00 | 0.00 | 57 | 1007.7 |
| 20260504220515 | 82 | 186 | 6.0 | 12.0 | 0.00 | 0.00 | 0.00 | 57 | 1007.8 |
| 20260504220040 | 81 | 173 | 4.0 | 11.0 | 0.00 | 0.00 | 0.00 | 59 | 1007.8 |
| 20260504215516 | 81 | 150 | 5.0 | 12.0 | 0.00 | 0.00 | 0.00 | 58 | 1007.7 |
| 20260504215015 | 81 | 161 | 4.0 | 12.0 | 0.00 | 0.00 | 0.00 | 59 | 1007.8 |
| 20260504214540 | 81 | 180 | 4.0 | 10.0 | 0.00 | 0.00 | 0.00 | 58 | 1008.0 |
| 20260504214019 | 81 | 171 | 4.0 | 10.0 | 0.00 | 0.00 | 0.00 | 57 | 1008.1 |
| 20260504213515 | 82 | 132 | 4.0 | 9.0 | 0.00 | 0.00 | 0.00 | 58 | 1008.2 |
| 20260504213034 | 82 | 132 | 3.0 | 15.0 | 0.00 | 0.00 | 0.00 | 57 | 1008.4 |
| 20260504212515 | 82 | 162 | 4.0 | 15.0 | 0.00 | 0.00 | 0.00 | 57 | 1008.3 |
| 20260504212017 | 82 | 225 | 7.0 | 14.0 | 0.00 | 0.00 | 0.00 | 56 | 1008.3 |
| 20260504211534 | 83 | 209 | 5.0 | 13.0 | 0.00 | 0.00 | 0.00 | 56 | 1008.4 |
| 20260504211015 | 83 | 159 | 5.0 | 12.0 | 0.00 | 0.00 | 0.00 | 55 | 1008.4 |
| 20260504210516 | 83 | 157 | 3.0 | 16.0 | 0.00 | 0.00 | 0.00 | 55 | 1008.6 |
| 20260504210033 | 84 | 207 | 3.0 | 16.0 | 0.00 | 0.00 | 0.00 | 55 | 1008.8 |
| 20260504205515 | 84 | 194 | 5.0 | 13.0 | 0.00 | 0.00 | 0.00 | 54 | 1008.9 |
| 20260504205016 | 84 | 159 | 3.0 | 19.0 | 0.00 | 0.00 | 0.00 | 54 | 1009.2 |
| 20260504204532 | 83 | 152 | 4.0 | 19.0 | 0.00 | 0.00 | 0.00 | 55 | 1009.1 |
| 20260504204015 | 82 | 223 | 7.0 | 18.0 | 0.00 | 0.00 | 0.00 | 55 | 1009.2 |
| 20260504203520 | 82 | 119 | 5.0 | 17.0 | 0.00 | 0.00 | 0.00 | 57 | 1009.2 |
| 20260504203032 | 82 | 172 | 4.0 | 17.0 | 0.00 | 0.00 | 0.00 | 56 | 1009.1 |
| 20260504202515 | 84 | 130 | 5.0 | 15.0 | 0.00 | 0.00 | 0.00 | 52 | 1009.2 |
| 20260504202016 | 83 | 134 | 6.0 | 14.0 | 0.00 | 0.00 | 0.00 | 55 | 1009.3 |
| 20260504201532 | 84 | 238 | 4.0 | 14.0 | 0.00 | 0.00 | 0.00 | 54 | 1009.3 |
| 20260504201018 | 84 | 143 | 6.0 | 14.0 | 0.00 | 0.00 | 0.00 | 53 | 1009.5 |
| 20260504200515 | 84 | 153 | 4.0 | 16.0 | 0.00 | 0.00 | 0.00 | 55 | 1009.4 |
| 20260504200031 | 83 | 154 | 5.0 | 16.0 | 0.00 | 0.00 | 0.00 | 55 | 1009.7 |
| 20260504195514 | 83 | 192 | 5.0 | 14.0 | 0.00 | 0.00 | 0.00 | 54 | 1009.8 |
| 20260504195015 | 83 | 153 | 5.0 | 15.0 | 0.00 | 0.00 | 0.00 | 55 | 1009.8 |
| 20260504194532 | 83 | 170 | 6.0 | 15.0 | 0.00 | 0.00 | 0.00 | 55 | 1009.9 |
| 20260504194015 | 83 | 180 | 6.0 | 15.0 | 0.00 | 0.00 | 0.00 | 53 | 1010.0 |
| 20260504193515 | 83 | 139 | 4.0 | 17.0 | 0.00 | 0.00 | 0.00 | 54 | 1010.3 |
| 20260504193031 | 82 | 166 | 8.0 | 17.0 | 0.00 | 0.00 | 0.00 | 56 | 1010.4 |
| 20260504192515 | 82 | 178 | 5.0 | 13.0 | 0.00 | 0.00 | 0.00 | 55 | 1010.4 |
| 20260504192015 | 82 | 175 | 6.0 | 14.0 | 0.00 | 0.00 | 0.00 | 54 | 1010.4 |
| 20260504191532 | 83 | 157 | 6.0 | 15.0 | 0.00 | 0.00 | 0.00 | 55 | 1010.5 |
| 20260504191015 | 81 | 161 | 8.0 | 15.0 | 0.00 | 0.00 | 0.00 | 56 | 1010.6 |
| 20260504190515 | 82 | 178 | 5.0 | 14.0 | 0.00 | 0.00 | 0.00 | 55 | 1010.7 |
| 20260504190032 | 82 | 188 | 8.0 | 14.0 | 0.00 | 0.00 | 0.00 | 54 | 1010.8 |
| 20260504185515 | 82 | 182 | 4.0 | 11.0 | 0.00 | 0.00 | 0.00 | 55 | 1010.7 |
| 20260504185018 | 81 | 175 | 4.0 | 15.0 | 0.00 | 0.00 | 0.00 | 57 | 1010.9 |
| 20260504184534 | 80 | 206 | 8.0 | 15.0 | 0.00 | 0.00 | 0.00 | 59 | 1010.7 |
| 20260504184015 | 81 | 215 | 6.0 | 15.0 | 0.00 | 0.00 | 0.00 | 54 | 1011.0 |
| 20260504183516 | 81 | 226 | 5.0 | 16.0 | 0.00 | 0.00 | 0.00 | 55 | 1011.1 |
| 20260504183033 | 81 | 186 | 4.0 | 17.0 | 0.00 | 0.00 | 0.00 | 55 | 1011.0 |
| 20260504182515 | 81 | 169 | 6.0 | 17.0 | 0.00 | 0.00 | 0.00 | 56 | 1011.0 |
| 20260504182015 | 80 | 258 | 5.0 | 17.0 | 0.00 | 0.00 | 0.00 | 56 | 1011.2 |
| 20260504181536 | 79 | 212 | 9.0 | 16.0 | 0.00 | 0.00 | 0.00 | 57 | 1011.2 |
| 20260504181018 | 79 | 170 | 6.0 | 19.0 | 0.00 | 0.00 | 0.00 | 57 | 1011.5 |
| 20260504180514 | 79 | 239 | 8.0 | 19.0 | 0.00 | 0.00 | 0.00 | 56 | 1011.6 |
| 20260504180032 | 80 | 182 | 6.0 | 14.0 | 0.00 | 0.00 | 0.00 | 55 | 1011.6 |
| 20260504175515 | 79 | 161 | 4.0 | 11.0 | 0.00 | 0.00 | 0.00 | 60 | 1011.7 |
| 20260504175015 | 79 | 127 | 5.0 | 16.0 | 0.00 | 0.00 | 0.00 | 58 | 1011.8 |
| 20260504174530 | 78 | 196 | 7.0 | 16.0 | 0.00 | 0.00 | 0.00 | 57 | 1011.9 |
| 20260504174015 | 78 | 180 | 4.0 | 13.0 | 0.00 | 0.00 | 0.00 | 60 | 1011.8 |
| 20260504173515 | 78 | 215 | 4.0 | 13.0 | 0.00 | 0.00 | 0.00 | 60 | 1011.9 |
| 20260504173031 | 78 | 166 | 6.0 | 15.0 | 0.00 | 0.00 | 0.00 | 57 | 1012.0 |
| 20260504172514 | 78 | 166 | 4.0 | 17.0 | 0.00 | 0.00 | 0.00 | 60 | 1012.0 |
| 20260504172016 | 77 | 212 | 4.0 | 17.0 | 0.00 | 0.00 | 0.00 | 58 | 1012.1 |
| 20260504171532 | 77 | 200 | 7.0 | 14.0 | 0.00 | 0.00 | 0.00 | 59 | 1012.1 |
| 20260504171014 | 76 | 189 | 6.0 | 14.0 | 0.00 | 0.00 | 0.00 | 59 | 1012.4 |
| 20260504170515 | 76 | 163 | 4.0 | 18.0 | 0.00 | 0.00 | 0.00 | 59 | 1012.4 |
| 20260504151015 | 70 | 192 | 7.0 | 22.0 | 0.00 | 0.00 | 0.00 | 68 | 1012.7 |
| 20260504150514 | 69 | 205 | 8.0 | 22.0 | 0.00 | 0.00 | 0.00 | 69 | 1012.8 |
| 20260504141015 | 64 | 187 | 4.0 | 17.0 | 0.00 | 0.00 | 0.00 | 77 | 1013.2 |
| 20260504140515 | 64 | 165 | 6.0 | 17.0 | 0.00 | 0.00 | 0.00 | 77 | 1013.0 |
| 20260504130517 | 58 | 219 | 3.0 | 10.0 | 0.00 | 0.00 | 0.00 | 84 | 1013.2 |
| 20260504110514 | 56 | 174 | 2.0 | 6.0 | 0.00 | 0.00 | 0.00 | 82 | 1012.7 |
| 20260504100514 | 57 | 172 | 2.0 | 6.0 | 0.00 | 0.00 | 0.00 | 78 | 1013.3 |
| 20260504081536 | 57 | 159 | 3.0 | 7.0 | 0.00 | 0.00 | 0.00 | 73 | 1014.1 |
| 20260504081015 | 57 | 180 | 2.0 | 6.0 | 0.00 | 0.00 | 0.00 | 73 | 1014.2 |
| 20260504080519 | 57 | 138 | 2.0 | 6.0 | 0.00 | 0.00 | 0.00 | 73 | 1014.2 |
| 20260504050516 | 60 | 149 | 1.0 | 5.0 | 0.00 | 0.00 | 0.00 | 64 | 1016.2 |
| 20260504045516 | 60 | 179 | 1.0 | 4.0 | 0.00 | 0.00 | 0.00 | 64 | 1016.3 |
| 20260504045016 | 60 | 164 | 1.0 | 5.0 | 0.00 | 0.00 | 0.00 | 63 | 1016.4 |
| 20260504044536 | 60 | 167 | 1.0 | 6.0 | 0.00 | 0.00 | 0.00 | 63 | 1016.4 |
| 20260504044016 | 60 | 198 | 2.0 | 6.0 | 0.00 | 0.00 | 0.00 | 63 | 1016.3 |
| 20260504043516 | 60 | 163 | 1.0 | 5.0 | 0.00 | 0.00 | 0.00 | 63 | 1016.4 |
| 20260504043032 | 60 | 180 | 1.0 | 5.0 | 0.00 | 0.00 | 0.00 | 63 | 1016.6 |
| 20260504042517 | 60 | 142 | 1.0 | 5.0 | 0.00 | 0.00 | 0.00 | 64 | 1016.6 |
| 20260504042015 | 60 | 138 | 2.0 | 5.0 | 0.00 | 0.00 | 0.00 | 64 | 1016.7 |
| 20260504041532 | 60 | 146 | 1.0 | 3.0 | 0.00 | 0.00 | 0.00 | 64 | 1016.7 |
| 20260504041015 | 60 | 166 | 0.0 | 3.0 | 0.00 | 0.00 | 0.00 | 65 | 1016.7 |
| 20260504040515 | 60 | 0 | 1.0 | 4.0 | 0.00 | 0.00 | 0.00 | 64 | 1016.7 |
| 20260504040038 | 60 | 211 | 1.0 | 5.0 | 0.00 | 0.00 | 0.00 | 63 | 1016.8 |
| 20260504035520 | 60 | 0 | 1.0 | 5.0 | 0.00 | 0.00 | 0.00 | 63 | 1016.9 |
| 20260504035016 | 60 | 0 | 1.0 | 4.0 | 0.00 | 0.00 | 0.00 | 63 | 1016.8 |
| 20260504034535 | 61 | 152 | 0.0 | 4.0 | 0.00 | 0.00 | 0.00 | 62 | 1016.8 |
| 20260504034015 | 61 | 169 | 0.0 | 4.0 | 0.00 | 0.00 | 0.00 | 61 | 1016.8 |
| 20260504033516 | 62 | 0 | 0.0 | 4.0 | 0.00 | 0.00 | 0.00 | 60 | 1016.8 |
| 20260504033045 | 62 | 152 | 1.0 | 5.0 | 0.00 | 0.00 | 0.00 | 60 | 1016.7 |
| 20260504032516 | 62 | 0 | 1.0 | 5.0 | 0.00 | 0.00 | 0.00 | 60 | 1016.7 |
| 20260504032016 | 61 | 180 | 1.0 | 4.0 | 0.00 | 0.00 | 0.00 | 60 | 1016.8 |
| 20260504031537 | 61 | 151 | 1.0 | 4.0 | 0.00 | 0.00 | 0.00 | 61 | 1016.7 |
| 20260504031015 | 61 | 0 | 0.0 | 2.0 | 0.00 | 0.00 | 0.00 | 61 | 1016.8 |
| 20260504030515 | 61 | 159 | 0.0 | 2.0 | 0.00 | 0.00 | 0.00 | 60 | 1016.7 |
| 20260504030034 | 61 | 0 | 0.0 | 2.0 | 0.00 | 0.00 | 0.00 | 59 | 1016.6 |
| 20260504025516 | 62 | 0 | 0.0 | 1.0 | 0.00 | 0.00 | 0.00 | 58 | 1016.4 |
| 20260504025019 | 61 | 0 | 0.0 | 1.0 | 0.00 | 0.00 | 0.00 | 59 | 1016.5 |
| 20260504024544 | 62 | 159 | 0.0 | 2.0 | 0.00 | 0.00 | 0.00 | 57 | 1016.4 |
| 20260504024017 | 62 | 0 | 0.0 | 2.0 | 0.00 | 0.00 | 0.00 | 57 | 1016.4 |
| 20260504023516 | 63 | 0 | 0.0 | 2.0 | 0.00 | 0.00 | 0.00 | 55 | 1016.4 |
| 20260504023037 | 63 | 0 | 0.0 | 3.0 | 0.00 | 0.00 | 0.00 | 54 | 1016.4 |
| 20260504022516 | 64 | 163 | 1.0 | 3.0 | 0.00 | 0.00 | 0.00 | 53 | 1016.5 |
| 20260504022017 | 64 | 0 | 0.0 | 2.0 | 0.00 | 0.00 | 0.00 | 53 | 1016.4 |
| 20260504021539 | 64 | 0 | 0.0 | 1.0 | 0.00 | 0.00 | 0.00 | 52 | 1016.4 |
| 20260504021015 | 64 | 0 | 0.0 | 1.0 | 0.00 | 0.00 | 0.00 | 52 | 1016.3 |
| 20260504020515 | 65 | 0 | 0.0 | 1.0 | 0.00 | 0.00 | 0.00 | 52 | 1016.4 |
| 20260504020032 | 65 | 0 | 0.0 | 1.0 | 0.00 | 0.00 | 0.00 | 51 | 1016.4 |
| 20260504015516 | 65 | 0 | 0.0 | 1.0 | 0.00 | 0.00 | 0.00 | 50 | 1016.4 |
| 20260504015016 | 65 | 0 | 0.0 | 2.0 | 0.00 | 0.00 | 0.00 | 50 | 1016.4 |
| 20260504014532 | 66 | 186 | 0.0 | 2.0 | 0.00 | 0.00 | 0.00 | 49 | 1016.3 |
| 20260504014018 | 66 | 186 | 0.0 | 2.0 | 0.00 | 0.00 | 0.00 | 48 | 1016.3 |
| 20260504013516 | 66 | 210 | 0.0 | 2.0 | 0.00 | 0.00 | 0.00 | 48 | 1016.3 |
| 20260504013046 | 67 | 0 | 0.0 | 2.0 | 0.00 | 0.00 | 0.00 | 47 | 1016.3 |
| 20260504012516 | 67 | 0 | 0.0 | 2.0 | 0.00 | 0.00 | 0.00 | 47 | 1016.3 |
| 20260504012017 | 67 | 124 | 0.0 | 2.0 | 0.00 | 0.00 | 0.00 | 47 | 1016.3 |
| 20260504011537 | 67 | 0 | 0.0 | 2.0 | 0.00 | 0.00 | 0.00 | 46 | 1016.2 |
| 20260504011015 | 68 | 0 | 0.0 | 2.0 | 0.00 | 0.00 | 0.00 | 46 | 1016.3 |
| 20260504010519 | 69 | 0 | 0.0 | 2.0 | 0.00 | 0.00 | 0.00 | 44 | 1016.2 |
| 20260504010036 | 69 | 0 | 0.0 | 2.0 | 0.00 | 0.00 | 0.00 | 44 | 1016.1 |
| 20260504005516 | 69 | 0 | 0.0 | 2.0 | 0.00 | 0.00 | 0.00 | 43 | 1016.1 |
| 20260504005016 | 70 | 180 | 0.0 | 6.0 | 0.00 | 0.00 | 0.00 | 43 | 1016.1 |
| 20260504004541 | 71 | 185 | 1.0 | 6.0 | 0.00 | 0.00 | 0.00 | 42 | 1016.2 |
| 20260504004016 | 71 | 181 | 1.0 | 6.0 | 0.00 | 0.00 | 0.00 | 41 | 1016.1 |
| 20260504003515 | 72 | 194 | 2.0 | 6.0 | 0.00 | 0.00 | 0.00 | 40 | 1016.1 |
| 20260504003033 | 72 | 188 | 2.0 | 7.0 | 0.00 | 0.00 | 0.00 | 39 | 1016.2 |
| 20260504002515 | 73 | 155 | 2.0 | 8.0 | 0.00 | 0.00 | 0.00 | 40 | 1016.3 |
| 20260504002017 | 74 | 188 | 2.0 | 8.0 | 0.00 | 0.00 | 0.00 | 38 | 1016.3 |